Weather History for Menomonie, WI

Change the Weather History Date:

Monday, January 13, 2014

  Actual Average (KEAU) Record (KEAU)
Temperature  
Mean Temperature 26 °F 14 °F  
Max Temperature 35 °F 23 °F 44 °F (1987)
Min Temperature 18 °F 5 °F -28 °F (1916)
Degree Days  
Heating Degree Days 38 51  
Month to date heating degree days 658  
Since 1 July heating degree days 3834  
Cooling Degree Days 0 0  
Month to date cooling degree days 0  
Year to date cooling degree days 0  
Moisture  
Dew Point 22 °F    
Average Humidity 75    
Maximum Humidity 89    
Minimum Humidity 57    
Precipitation  
Precipitation 0.00 in 0.03 in 0.60 in (1950)
Month to date precipitation 0.36  
Year to date precipitation 0.36  
Snow  
Snow 0.00 in 0.40 in 6.00 in (1950)
Month to date snowfall 5.1  
Since 1 July snowfall 20.9  
Snow Depth -    
Sea Level Pressure  
Sea Level Pressure 29.58 in    
Wind  
Wind Speed 7 mph (West)    
Max Wind Speed 17 mph    
Max Gust Speed 22 mph    
Visibility 10 miles    
Events Snow    
T = Trace of Precipitation, MM = Missing Value Source: NWS Daily Summary

Daily Weather History Graph

Daily Weather History Graph

Search for Another Location

Airport:

Trip Planner

Search our weather history database for the weather conditions in past years. The results will help you decide how hot, cold, wet, or windy it might be!

Date:

Astronomy

Jan. 13, 2014 Rise Set
Actual Time 7:42 AM CST 4:50 PM CST
Civil Twilight 7:09 AM CST 5:22 PM CST
Nautical Twilight 6:33 AM CST 5:59 PM CST
Astronomical Twilight 5:58 AM CST 6:34 PM CST
Moon 3:06 PM CST (1/13) 5:31 AM CST (1/13)
Length of Visible Light 10h 12m
Length of Day
9h 07m
Waxing Gibbous, 95% of the Moon is Illuminated
Jan 13
Waxing Gibbous
Jan 15
Full
Jan 23
Last Quarter
Jan 30
New
Feb 6
First Quarter

Hourly Weather History & Observations

Time (CST) Temp. Windchill Dew Point Humidity Pressure Visibility Wind Dir Wind Speed Gust Speed Precip Events Conditions
12:15 AM 35.8 °F 31.9 °F 29.7 °F 78% 29.47 in 10.0 mi WSW 4.6 mph - N/A   Scattered Clouds
12:35 AM 33.1 °F 30.0 °F 28.2 °F 82% 29.47 in 10.0 mi SW 3.5 mph - N/A   Clear
12:55 AM 32.0 °F 27.5 °F 27.7 °F 84% 29.48 in 10.0 mi SW 4.6 mph - N/A   Clear
1:15 AM 33.8 °F 28.6 °F 28.9 °F 82% 29.48 in 10.0 mi SW 5.8 mph - N/A   Clear
1:35 AM 34.5 °F - 28.9 °F 80% 29.48 in 10.0 mi Calm Calm - N/A   Clear
1:55 AM 32.5 °F - 28.2 °F 84% 29.48 in 10.0 mi Calm Calm - N/A   Clear
2:15 AM 32.9 °F 28.5 °F 28.8 °F 85% 29.48 in 10.0 mi SW 4.6 mph - N/A   Clear
2:35 AM 34.2 °F 30.0 °F 29.1 °F 82% 29.48 in 10.0 mi WSW 4.6 mph - N/A   Clear
2:55 AM 33.4 °F - 28.8 °F 83% 29.48 in 10.0 mi Calm Calm - N/A   Clear
3:15 AM 33.1 °F 30.0 °F 28.9 °F 85% 29.48 in 10.0 mi West 3.5 mph - N/A   Clear
3:35 AM 32.2 °F 26.7 °F 28.0 °F 85% 29.49 in 10.0 mi WSW 5.8 mph - N/A   Clear
3:55 AM 32.2 °F 27.7 °F 28.0 °F 85% 29.50 in 10.0 mi West 4.6 mph - N/A   Clear
4:15 AM 32.4 °F 26.9 °F 28.4 °F 85% 29.51 in 10.0 mi WSW 5.8 mph - N/A   Clear
4:35 AM 33.1 °F 26.9 °F 28.4 °F 83% 29.50 in 10.0 mi WSW 6.9 mph - N/A   Clear
4:55 AM 32.9 °F 26.7 °F 28.0 °F 82% 29.51 in 10.0 mi WSW 6.9 mph - N/A   Clear
5:15 AM 32.5 °F 26.2 °F 27.7 °F 82% 29.51 in 10.0 mi West 6.9 mph - N/A   Clear
5:35 AM 32.2 °F 25.0 °F 27.5 °F 83% 29.52 in 10.0 mi West 8.1 mph - N/A   Clear
5:55 AM 32.0 °F 24.8 °F 27.1 °F 82% 29.52 in 10.0 mi West 8.1 mph - N/A   Clear
6:15 AM 31.5 °F 23.5 °F 27.0 °F 83% 29.53 in 10.0 mi West 9.2 mph - N/A   Clear
6:35 AM 32.0 °F 23.6 °F 27.3 °F 83% 29.54 in 10.0 mi West 10.4 mph - N/A   Mostly Cloudy
6:55 AM 32.0 °F 23.0 °F 27.1 °F 82% 29.55 in 10.0 mi WNW 11.5 mph - N/A   Overcast
7:15 AM 32.0 °F 22.1 °F 26.6 °F 80% 29.55 in 10.0 mi West 13.8 mph - N/A   Overcast
7:35 AM 31.8 °F 22.3 °F 26.4 °F 80% 29.55 in 10.0 mi West 12.7 mph - N/A   Overcast
7:55 AM 31.8 °F 22.8 °F 26.4 °F 80% 29.56 in 10.0 mi West 11.5 mph - N/A   Overcast
8:15 AM 32.0 °F 23.6 °F 26.2 °F 79% 29.57 in 10.0 mi West 10.4 mph - N/A   Overcast
8:35 AM 32.0 °F 23.0 °F 26.1 °F 79% 29.58 in 10.0 mi West 11.5 mph - N/A   Overcast
8:55 AM 32.0 °F 23.0 °F 25.5 °F 77% 29.59 in 10.0 mi West 11.5 mph - N/A   Overcast
9:15 AM 31.8 °F 23.3 °F 25.0 °F 76% 29.60 in 10.0 mi West 10.4 mph - N/A   Overcast
9:35 AM 31.8 °F 23.3 °F 23.9 °F 73% 29.60 in 10.0 mi West 10.4 mph - N/A   Overcast
9:55 AM 31.8 °F 22.8 °F 23.7 °F 72% 29.61 in 10.0 mi West 11.5 mph - N/A   Overcast
10:15 AM 31.6 °F 21.2 °F 21.7 °F 67% 29.62 in 10.0 mi West 15.0 mph 20.7 mph N/A   Overcast
10:35 AM 31.5 °F 20.1 °F 20.5 °F 64% 29.62 in 10.0 mi West 17.3 mph 21.9 mph N/A   Scattered Clouds
10:55 AM 31.1 °F 21.4 °F 19.6 °F 62% 29.62 in 10.0 mi West 12.7 mph 18.4 mph N/A   Clear
11:15 AM 31.1 °F 20.9 °F 17.8 °F 58% 29.62 in 10.0 mi WNW 13.8 mph 20.7 mph N/A   Clear
11:35 AM 31.5 °F 22.9 °F 18.0 °F 57% 29.61 in 10.0 mi West 10.4 mph 16.1 mph N/A   Clear
11:55 AM 31.3 °F 21.1 °F 17.8 °F 57% 29.60 in 10.0 mi West 13.8 mph - N/A   Clear
12:15 PM 31.5 °F 21.8 °F 18.3 °F 58% 29.60 in 10.0 mi WNW 12.7 mph - N/A   Clear
12:35 PM 31.6 °F 22.6 °F 18.1 °F 57% 29.60 in 10.0 mi West 11.5 mph - N/A   Scattered Clouds
12:55 PM 31.8 °F 21.8 °F 18.5 °F 58% 29.60 in 10.0 mi West 13.8 mph - N/A   Clear
1:15 PM 32.0 °F 24.2 °F 19.0 °F 59% 29.60 in 10.0 mi West 9.2 mph - N/A   Clear
1:35 PM 31.8 °F 23.9 °F 19.2 °F 60% 29.60 in 10.0 mi West 9.2 mph - N/A   Scattered Clouds
1:55 PM 32.0 °F 21.6 °F 19.4 °F 60% 29.60 in 10.0 mi West 15.0 mph 19.6 mph N/A   Mostly Cloudy
2:15 PM 31.8 °F 22.3 °F 19.2 °F 60% 29.60 in 10.0 mi West 12.7 mph - N/A   Scattered Clouds
2:35 PM 32.0 °F 24.8 °F 19.4 °F 60% 29.60 in 10.0 mi WSW 8.1 mph - N/A   Clear
2:55 PM 31.8 °F 23.9 °F 19.2 °F 60% 29.61 in 10.0 mi WSW 9.2 mph - N/A   Scattered Clouds
3:15 PM 31.5 °F 22.9 °F 19.2 °F 61% 29.62 in 10.0 mi WSW 10.4 mph - N/A   Clear
3:35 PM 30.9 °F 21.2 °F 17.8 °F 58% 29.63 in 10.0 mi West 12.7 mph 18.4 mph N/A   Clear
3:55 PM 30.0 °F 19.5 °F 17.4 °F 59% 29.63 in 10.0 mi WSW 13.8 mph - N/A   Clear
4:15 PM 29.3 °F 18.6 °F 17.4 °F 61% 29.63 in 10.0 mi WSW 13.8 mph - N/A   Clear
4:35 PM 28.4 °F 19.1 °F 16.7 °F 62% 29.64 in 10.0 mi WSW 10.4 mph - N/A   Clear
4:55 PM 27.5 °F 19.3 °F 16.3 °F 63% 29.65 in 10.0 mi West 8.1 mph - N/A   Clear
5:15 PM 26.4 °F 19.8 °F 15.8 °F 64% 29.64 in 10.0 mi West 5.8 mph - N/A   Clear
5:35 PM 26.1 °F 20.5 °F 15.8 °F 65% 29.64 in 10.0 mi West 4.6 mph - N/A   Clear
5:55 PM 25.5 °F - 15.6 °F 66% 29.65 in 10.0 mi Calm Calm - N/A   Clear
6:15 PM 23.7 °F 17.8 °F 16.2 °F 73% 29.66 in 10.0 mi SW 4.6 mph - N/A   Clear
6:35 PM 23.7 °F 17.8 °F 16.0 °F 72% 29.65 in 10.0 mi WSW 4.6 mph - N/A   Clear
6:55 PM 23.5 °F 19.1 °F 16.3 °F 74% 29.66 in 10.0 mi WSW 3.5 mph - N/A   Clear
7:15 PM 22.8 °F 16.7 °F 16.2 °F 76% 29.66 in 10.0 mi SW 4.6 mph - N/A   Clear
7:35 PM 21.7 °F - 16.3 °F 80% 29.65 in 10.0 mi Calm Calm - N/A   Clear
7:55 PM 21.9 °F - 16.3 °F 79% 29.65 in 10.0 mi Calm Calm - N/A   Mostly Cloudy
8:15 PM 19.4 °F - 14.7 °F 82% 29.66 in 10.0 mi Calm Calm - N/A   Overcast
8:35 PM 18.7 °F - 14.7 °F 85% 29.65 in 10.0 mi Calm Calm - N/A   Overcast
8:55 PM 18.9 °F 13.7 °F 14.7 °F 84% 29.65 in 10.0 mi East 3.5 mph - N/A   Overcast
9:15 PM 18.9 °F 13.7 °F 15.1 °F 85% 29.63 in 10.0 mi East 3.5 mph - N/A   Overcast
9:35 PM 19.4 °F - 15.6 °F 85% 29.64 in 10.0 mi Calm Calm - N/A   Overcast
9:55 PM 20.8 °F 14.4 °F 17.1 °F 85% 29.64 in 10.0 mi ESE 4.6 mph - N/A   Overcast
10:15 PM 21.9 °F 17.2 °F 17.8 °F 84% 29.63 in 10.0 mi East 3.5 mph - N/A   Overcast
10:35 PM 22.1 °F - 18.3 °F 85% 29.63 in 7.0 mi Calm Calm - N/A Snow Light Snow
10:55 PM 22.6 °F 16.5 °F 19.4 °F 87% 29.62 in 2.5 mi ENE 4.6 mph - N/A Snow Light Snow
11:15 PM 22.8 °F 13.6 °F 19.4 °F 87% 29.61 in 7.0 mi ENE 8.1 mph - N/A Snow Light Snow
11:35 PM 23.0 °F 15.8 °F 20.1 °F 89% 29.60 in 4.0 mi East 5.8 mph - N/A Snow Light Snow
11:55 PM 23.5 °F 15.4 °F 20.8 °F 89% 29.60 in 5.0 mi East 6.9 mph - N/A Snow Light Snow